Time,TemperatureF,DewpointF,PressureIn,WindDirection,WindDirectionDegrees,WindSpeedMPH,WindSpeedGustMPH,Humidity,HourlyPrecipIn,Conditions,Clouds,dailyrainin,SoftwareType,DateUTC
2013-02-08 00:00:00,21.8,-5.6,30.50,ESE,105,0.0,1.0,29,0.00,OVC,,0.00,WeatherDisplay:10.37,2013-02-08 05:00:00,
2013-02-08 00:02:00,21.8,-4.9,30.50,ESE,105,0.0,0.0,30,0.00,OVC,,0.00,WeatherDisplay:10.37,2013-02-08 05:02:00,
2013-02-08 00:07:00,21.8,-3.6,30.50,ESE,105,0.0,0.0,32,0.00,OVC,,0.00,WeatherDisplay:10.37,2013-02-08 05:07:00,
2013-02-08 00:12:00,21.8,-2.3,30.50,ESE,105,0.0,0.0,34,0.00,OVC,,0.00,WeatherDisplay:10.37,2013-02-08 05:12:00,
2013-02-08 00:17:00,21.8,-2.3,30.50,ESE,105,0.0,0.0,34,0.00,OVC,,0.00,WeatherDisplay:10.37,2013-02-08 05:17:00,
2013-02-08 00:22:00,21.8,-3.6,30.50,ESE,105,0.0,0.0,32,0.00,OVC,,0.00,WeatherDisplay:10.37,2013-02-08 05:22:00,
2013-02-08 00:27:00,21.6,-3.8,30.50,ESE,105,0.0,1.1,32,0.00,OVC,,0.00,WeatherDisplay:10.37,2013-02-08 05:27:00,
2013-02-08 00:32:00,21.6,-3.8,30.50,ESE,105,1.2,2.3,32,0.00,OVC,,0.00,WeatherDisplay:10.37,2013-02-08 05:32:00,
2013-02-08 00:37:00,21.6,-3.1,30.50,ESE,105,0.1,1.1,33,0.00,OVC,,0.00,WeatherDisplay:10.37,2013-02-08 05:37:00,
2013-02-08 00:42:00,21.6,-4.4,30.49,ESE,104,0.0,1.1,31,0.00,OVC,,0.00,WeatherDisplay:10.37,2013-02-08 05:42:00,
2013-02-08 00:47:00,21.6,-4.4,30.49,ESE,105,0.2,1.1,31,0.00,OVC,,0.00,WeatherDisplay:10.37,2013-02-08 05:47:00,
2013-02-08 00:52:00,21.6,-3.8,30.49,ESE,105,0.0,0.0,32,0.00,OVC,,0.00,WeatherDisplay:10.37,2013-02-08 05:52:00,
2013-02-08 00:57:00,21.6,-3.1,30.49,ESE,105,0.0,0.0,33,0.00,OVC,,0.00,WeatherDisplay:10.37,2013-02-08 05:57:00,
2013-02-08 01:02:00,21.6,-3.8,30.49,ESE,105,0.0,0.0,32,0.00,OVC,,0.00,WeatherDisplay:10.37,2013-02-08 06:02:00,
2013-02-08 01:07:00,21.6,-3.1,30.49,ESE,105,0.0,0.0,33,0.00,OVC,,0.00,WeatherDisplay:10.37,2013-02-08 06:07:00,
2013-02-08 01:12:00,21.6,-2.5,30.49,ESE,105,0.0,0.0,34,0.00,OVC,,0.00,WeatherDisplay:10.37,2013-02-08 06:12:00,
2013-02-08 01:17:00,21.6,-3.1,30.49,ESE,104,0.0,0.0,33,0.00,OVC,,0.00,WeatherDisplay:10.37,2013-02-08 06:17:00,
2013-02-08 01:22:00,21.6,-1.9,30.48,ESE,104,0.1,1.1,35,0.00,OVC,,0.00,WeatherDisplay:10.37,2013-02-08 06:22:00,
2013-02-08 01:27:00,21.5,-0.8,30.48,ESE,105,0.0,1.1,37,0.00,OVC,,0.00,WeatherDisplay:10.37,2013-02-08 06:27:00,
2013-02-08 01:32:00,21.3,0.1,30.48,ENE,65,0.0,1.0,39,0.00,OVC,,0.00,WeatherDisplay:10.37,2013-02-08 06:32:00,
2013-02-08 01:37:00,21.1,1.0,30.48,ENE,65,0.0,1.1,41,0.00,OVC,,0.00,WeatherDisplay:10.37,2013-02-08 06:37:00,
2013-02-08 01:42:00,21.0,1.5,30.48,ENE,62,2.2,3.5,42,0.00,OVC,,0.00,WeatherDisplay:10.37,2013-02-08 06:42:00,
2013-02-08 01:47:00,20.8,2.3,30.48,ENE,62,0.3,1.0,44,0.00,OVC,,0.00,WeatherDisplay:10.37,2013-02-08 06:47:00,
2013-02-08 01:52:00,20.8,2.8,30.48,ENE,67,0.6,2.3,45,0.00,OVC,,0.00,WeatherDisplay:10.37,2013-02-08 06:52:00,
2013-02-08 01:57:00,20.8,3.7,30.48,ENE,62,1.4,6.0,47,0.00,OVC,,0.00,WeatherDisplay:10.37,2013-02-08 06:57:00,
2013-02-08 02:02:00,20.8,3.7,30.47,NE,53,0.0,2.3,47,0.00,OVC,,0.00,WeatherDisplay:10.37,2013-02-08 07:02:00,
2013-02-08 02:07:00,20.7,3.6,30.47,NE,52,3.5,5.8,47,0.00,OVC,,0.00,WeatherDisplay:10.37,2013-02-08 07:07:00,
2013-02-08 02:12:00,20.7,4.1,30.47,ENE,60,0.8,3.5,48,0.00,OVC,,0.00,WeatherDisplay:10.37,2013-02-08 07:12:00,
2013-02-08 02:17:00,20.7,4.1,30.46,NE,55,2.3,4.6,48,0.00,OVC,,0.00,WeatherDisplay:10.37,2013-02-08 07:17:00,
2013-02-08 02:22:00,20.7,4.5,30.46,ENE,57,0.0,2.3,49,0.00,OVC,,0.00,WeatherDisplay:10.37,2013-02-08 07:22:00,
2013-02-08 02:27:00,20.7,4.5,30.46,ENE,69,2.0,2.3,49,0.00,OVC,,0.00,WeatherDisplay:10.37,2013-02-08 07:27:00,
2013-02-08 02:32:00,20.5,4.3,30.46,NE,43,2.3,4.6,49,0.00,OVC,,0.00,WeatherDisplay:10.37,2013-02-08 07:32:00,
2013-02-08 02:37:00,20.5,4.3,30.46,NE,46,1.1,4.6,49,0.00,OVC,,0.00,WeatherDisplay:10.37,2013-02-08 07:37:00,
2013-02-08 02:42:00,20.5,4.3,30.46,NNE,29,1.4,3.5,49,0.00,OVC,,0.00,WeatherDisplay:10.37,2013-02-08 07:42:00,
2013-02-08 02:47:00,20.5,4.3,30.45,ENE,57,1.4,3.5,49,0.00,OVC,,0.00,WeatherDisplay:10.37,2013-02-08 07:47:00,
2013-02-08 02:52:00,20.3,4.6,30.45,NE,41,2.3,3.0,50,0.00,OVC,,0.00,WeatherDisplay:10.37,2013-02-08 07:52:00,
2013-02-08 02:57:00,20.3,4.6,30.45,NE,38,2.0,3.5,50,0.00,OVC,,0.00,WeatherDisplay:10.37,2013-02-08 07:57:00,
2013-02-08 03:02:00,20.3,4.6,30.44,NNE,31,1.2,2.3,50,0.00,OVC,,0.00,WeatherDisplay:10.37,2013-02-08 08:02:00,
2013-02-08 03:07:00,20.3,5.0,30.44,NNE,26,1.2,2.3,51,0.00,OVC,,0.00,WeatherDisplay:10.37,2013-02-08 08:07:00,
2013-02-08 03:12:00,20.3,4.6,30.43,NNE,26,0.3,3.5,50,0.00,OVC,,0.00,WeatherDisplay:10.37,2013-02-08 08:12:00,
2013-02-08 03:17:00,20.3,5.0,30.43,NNE,28,0.0,2.3,51,0.00,OVC,,0.00,WeatherDisplay:10.37,2013-02-08 08:17:00,
2013-02-08 03:22:00,20.3,5.0,30.44,NNE,32,0.1,2.3,51,0.00,OVC,,0.00,WeatherDisplay:10.37,2013-02-08 08:22:00,
2013-02-08 03:27:00,20.3,5.5,30.44,NE,36,0.6,2.3,52,0.00,OVC,,0.00,WeatherDisplay:10.37,2013-02-08 08:27:00,
2013-02-08 03:32:00,20.3,5.5,30.43,NE,36,0.0,2.3,52,0.00,OVC,,0.00,WeatherDisplay:10.37,2013-02-08 08:32:00,
2013-02-08 03:37:00,20.3,5.5,30.43,NNE,31,1.4,2.3,52,0.00,OVC,,0.00,WeatherDisplay:10.37,2013-02-08 08:37:00,
2013-02-08 03:42:00,20.2,5.8,30.43,NE,52,1.0,2.3,53,0.00,OVC,,0.00,WeatherDisplay:10.37,2013-02-08 08:42:00,
2013-02-08 03:47:00,20.2,6.2,30.42,NE,52,1.7,3.0,54,0.00,OVC,,0.00,WeatherDisplay:10.37,2013-02-08 08:47:00,
2013-02-08 03:52:00,20.2,6.2,30.42,NE,46,0.3,2.3,54,0.00,OVC,,0.00,WeatherDisplay:10.37,2013-02-08 08:52:00,
2013-02-08 03:57:00,20.2,6.6,30.42,NE,41,1.5,4.6,55,0.00,OVC,,0.00,WeatherDisplay:10.37,2013-02-08 08:57:00,
2013-02-08 04:02:00,20.2,7.0,30.42,NE,36,0.3,3.5,56,0.00,OVC,,0.00,WeatherDisplay:10.37,2013-02-08 09:02:00,
2013-02-08 04:07:00,20.0,6.8,30.42,North,354,1.5,2.3,56,0.00,OVC,,0.00,WeatherDisplay:10.37,2013-02-08 09:07:00,
2013-02-08 04:12:00,20.0,6.8,30.42,North,355,0.7,2.3,56,0.00,OVC,,0.00,WeatherDisplay:10.37,2013-02-08 09:12:00,
2013-02-08 04:17:00,20.0,7.2,30.42,North,9,1.0,2.3,57,0.00,OVC,,0.00,WeatherDisplay:10.37,2013-02-08 09:17:00,
2013-02-08 04:22:00,20.2,8.1,30.42,NE,46,1.1,3.5,59,0.00,OVC,,0.00,WeatherDisplay:10.37,2013-02-08 09:22:00,
2013-02-08 04:27:00,20.0,8.3,30.42,NE,53,2.3,3.5,60,0.00,OVC,,0.00,WeatherDisplay:10.37,2013-02-08 09:27:00,
2013-02-08 04:32:00,20.0,8.3,30.41,NE,55,2.9,5.8,60,0.00,OVC,,0.00,WeatherDisplay:10.37,2013-02-08 09:32:00,
2013-02-08 04:37:00,20.0,8.7,30.41,ENE,62,1.3,3.5,61,0.00,OVC,,0.00,WeatherDisplay:10.37,2013-02-08 09:37:00,
2013-02-08 04:42:00,20.0,9.1,30.41,ENE,72,0.5,3.5,62,0.00,OVC,,0.00,WeatherDisplay:10.37,2013-02-08 09:42:00,
2013-02-08 04:47:00,20.0,9.4,30.41,East,81,2.2,3.5,63,0.00,OVC,,0.00,WeatherDisplay:10.37,2013-02-08 09:47:00,
2013-02-08 04:52:00,19.9,9.7,30.41,ENE,66,0.9,2.3,64,0.00,OVC,,0.00,WeatherDisplay:10.37,2013-02-08 09:52:00,
2013-02-08 04:57:00,19.9,10.0,30.41,East,97,2.1,4.6,65,0.00,OVC,,0.00,WeatherDisplay:10.37,2013-02-08 09:57:00,
2013-02-08 05:02:00,19.7,9.8,30.41,East,86,1.6,3.5,65,0.00,OVC,,0.00,WeatherDisplay:10.37,2013-02-08 10:02:00,
2013-02-08 05:07:00,19.7,10.2,30.41,ENE,74,3.4,5.8,66,0.00,OVC,,0.00,WeatherDisplay:10.37,2013-02-08 10:07:00,
2013-02-08 05:12:00,19.7,10.5,30.41,ENE,63,5.3,11.5,67,0.00,OVC,,0.00,WeatherDisplay:10.37,2013-02-08 10:12:00,
2013-02-08 05:17:00,19.6,10.4,30.41,NNE,25,2.2,4.6,67,0.00,OVC,,0.00,WeatherDisplay:10.37,2013-02-08 10:17:00,
2013-02-08 05:22:00,19.6,10.4,30.41,NNE,17,1.5,3.5,67,0.00,OVC,,0.00,WeatherDisplay:10.37,2013-02-08 10:22:00,
2013-02-08 05:27:00,19.6,10.7,30.41,NE,42,3.4,5.0,68,0.00,OVC,,0.00,WeatherDisplay:10.37,2013-02-08 10:27:00,
2013-02-08 05:32:00,19.6,11.1,30.41,NNE,26,0.5,4.6,69,0.00,OVC,,0.00,WeatherDisplay:10.37,2013-02-08 10:32:00,
2013-02-08 05:37:00,19.4,10.9,30.41,ENE,62,1.6,3.5,69,0.00,OVC,,0.00,WeatherDisplay:10.37,2013-02-08 10:37:00,
2013-02-08 05:42:00,19.4,11.2,30.40,NNE,22,2.6,4.6,70,0.00,OVC,,0.00,WeatherDisplay:10.37,2013-02-08 10:42:00,
2013-02-08 05:47:00,19.2,11.0,30.40,ENE,57,1.3,3.5,70,0.00,OVC,,0.00,WeatherDisplay:10.37,2013-02-08 10:47:00,
2013-02-08 05:52:00,19.2,11.0,30.40,NE,56,2.6,3.5,70,0.00,OVC,,0.00,WeatherDisplay:10.37,2013-02-08 10:52:00,
2013-02-08 05:57:00,19.1,11.2,30.40,NE,41,3.4,5.0,71,0.00,OVC,,0.00,WeatherDisplay:10.37,2013-02-08 10:57:00,
2013-02-08 06:02:00,18.9,11.4,30.40,NE,56,1.5,3.5,72,0.00,-SN,,0.00,WeatherDisplay:10.37,2013-02-08 11:02:00,
2013-02-08 06:07:00,18.9,11.4,30.40,North,2,1.8,4.6,72,0.00,-SN,,0.00,WeatherDisplay:10.37,2013-02-08 11:07:00,
2013-02-08 06:12:00,18.9,11.4,30.39,NNE,18,0.2,1.1,72,0.00,-SN,,0.00,WeatherDisplay:10.37,2013-02-08 11:12:00,
2013-02-08 06:17:00,18.9,11.7,30.39,NE,41,2.9,3.5,73,0.00,-SN,,0.00,WeatherDisplay:10.37,2013-02-08 11:17:00,
2013-02-08 06:22:00,18.8,11.6,30.40,NE,42,2.7,4.6,73,0.00,-SN,,0.00,WeatherDisplay:10.37,2013-02-08 11:22:00,
2013-02-08 06:27:00,18.8,11.9,30.40,NE,50,0.0,0.0,74,0.00,-SN,,0.00,WeatherDisplay:10.37,2013-02-08 11:27:00,
2013-02-08 06:32:00,18.8,11.9,30.40,NE,43,2.4,3.5,74,0.00,-SN,,0.00,WeatherDisplay:10.37,2013-02-08 11:32:00,
2013-02-08 06:37:00,18.8,11.9,30.40,NE,50,1.0,2.3,74,0.00,-SN,,0.00,WeatherDisplay:10.37,2013-02-08 11:37:00,
2013-02-08 06:42:00,18.8,11.9,30.40,NNE,31,2.5,3.5,74,0.00,-SN,,0.00,WeatherDisplay:10.37,2013-02-08 11:42:00,
2013-02-08 06:47:00,18.6,11.7,30.40,NNE,33,1.3,3.5,74,0.00,-SN,,0.00,WeatherDisplay:10.37,2013-02-08 11:47:00,
2013-02-08 06:52:00,18.6,11.7,30.40,NE,35,1.1,3.5,74,0.00,-SN,,0.00,WeatherDisplay:10.37,2013-02-08 11:52:00,
2013-02-08 06:57:00,18.6,11.7,30.40,NE,49,2.1,3.5,74,0.00,-SN,,0.00,WeatherDisplay:10.37,2013-02-08 11:57:00,
2013-02-08 07:02:00,18.6,11.7,30.39,North,5,3.4,4.6,74,0.00,-SN,,0.00,WeatherDisplay:10.37,2013-02-08 12:02:00,
2013-02-08 07:07:00,18.6,11.7,30.39,NNE,24,1.5,3.5,74,0.00,-SN,,0.00,WeatherDisplay:10.37,2013-02-08 12:07:00,
2013-02-08 07:12:00,18.6,12.0,30.39,North,4,2.1,4.6,75,0.00,-SN,,0.00,WeatherDisplay:10.37,2013-02-08 12:12:00,
2013-02-08 07:17:00,18.5,11.9,30.39,NE,53,3.5,4.6,75,0.00,-SN,,0.00,WeatherDisplay:10.37,2013-02-08 12:17:00,
2013-02-08 07:22:00,18.5,11.9,30.39,NNE,33,2.1,4.0,75,0.00,-SN,,0.00,WeatherDisplay:10.37,2013-02-08 12:22:00,
2013-02-08 07:27:00,18.5,11.9,30.39,NNE,32,0.1,2.3,75,0.00,-SN,,0.00,WeatherDisplay:10.37,2013-02-08 12:27:00,
2013-02-08 07:32:00,18.5,11.9,30.39,NE,38,4.1,5.8,75,0.00,-SN,,0.00,WeatherDisplay:10.37,2013-02-08 12:32:00,
2013-02-08 07:37:00,18.3,11.7,30.39,NE,42,2.2,3.5,75,0.00,-SN,,0.00,WeatherDisplay:10.37,2013-02-08 12:37:00,
2013-02-08 07:42:00,18.3,11.7,30.39,NE,48,4.9,8.1,75,0.00,-SN,,0.00,WeatherDisplay:10.37,2013-02-08 12:42:00,
2013-02-08 07:47:00,18.1,11.5,30.39,NNE,17,5.1,10.4,75,0.00,-SN,,0.00,WeatherDisplay:10.37,2013-02-08 12:47:00,
2013-02-08 07:52:00,18.1,11.5,30.39,ENE,70,2.0,6.0,75,0.00,-SN,,0.00,WeatherDisplay:10.37,2013-02-08 12:52:00,
2013-02-08 07:57:00,18.1,11.5,30.39,NE,36,2.2,6.9,75,0.00,-SN,,0.00,WeatherDisplay:10.37,2013-02-08 12:57:00,
2013-02-08 08:02:00,18.1,11.5,30.39,NE,45,1.6,4.6,75,0.00,-SN,,0.00,WeatherDisplay:10.37,2013-02-08 13:02:00,
2013-02-08 08:07:00,18.1,11.5,30.39,North,7,3.7,8.1,75,0.00,-SN,,0.00,WeatherDisplay:10.37,2013-02-08 13:07:00,
2013-02-08 08:12:00,18.1,11.5,30.39,North,2,3.0,5.8,75,0.00,-SN,,0.00,WeatherDisplay:10.37,2013-02-08 13:12:00,
2013-02-08 08:17:00,18.1,11.5,30.39,NE,42,5.9,8.1,75,0.00,-SN,,0.00,WeatherDisplay:10.37,2013-02-08 13:17:00,
2013-02-08 08:22:00,18.1,11.5,30.39,North,7,3.2,6.9,75,0.00,-SN,,0.00,WeatherDisplay:10.37,2013-02-08 13:22:00,
2013-02-08 08:27:00,18.1,11.5,30.39,NNE,32,2.4,3.5,75,0.00,-SN,,0.00,WeatherDisplay:10.37,2013-02-08 13:27:00,
2013-02-08 08:32:00,18.1,11.5,30.39,NE,38,5.2,5.8,75,0.00,-SN,,0.00,WeatherDisplay:10.37,2013-02-08 13:32:00,
2013-02-08 08:37:00,18.0,11.4,30.39,North,11,3.1,6.0,75,0.00,-SN,,0.00,WeatherDisplay:10.37,2013-02-08 13:37:00,
2013-02-08 08:42:00,17.8,11.2,30.38,NNE,29,6.1,11.5,75,0.00,-SN,,0.00,WeatherDisplay:10.37,2013-02-08 13:42:00,
2013-02-08 08:47:00,17.7,11.1,30.38,NE,38,4.3,8.1,75,0.00,-SN,,0.00,WeatherDisplay:10.37,2013-02-08 13:47:00,
2013-02-08 08:52:00,17.7,11.1,30.37,NE,48,4.2,6.9,75,0.00,-SN,,0.00,WeatherDisplay:10.37,2013-02-08 13:52:00,
2013-02-08 08:57:00,17.5,10.9,30.37,NE,42,6.5,9.2,75,0.00,-SN,,0.00,WeatherDisplay:10.37,2013-02-08 13:57:00,
2013-02-08 09:02:00,17.5,10.9,30.37,North,4,0.7,3.5,75,0.00,-SN,,0.00,WeatherDisplay:10.37,2013-02-08 14:02:00,
2013-02-08 09:07:00,17.7,11.1,30.37,NNE,32,4.1,6.9,75,0.00,-SN,,0.00,WeatherDisplay:10.37,2013-02-08 14:07:00,
2013-02-08 09:12:00,17.7,11.1,30.36,NNE,33,6.1,8.1,75,0.00,-SN,,0.00,WeatherDisplay:10.37,2013-02-08 14:12:00,
2013-02-08 09:17:00,17.7,11.1,30.36,NNE,22,5.4,6.9,75,0.00,-SN,,0.00,WeatherDisplay:10.37,2013-02-08 14:17:00,
2013-02-08 09:22:00,17.8,11.2,30.36,NNE,26,3.6,5.8,75,0.00,-SN,,0.00,WeatherDisplay:10.37,2013-02-08 14:22:00,
2013-02-08 09:27:00,17.8,11.2,30.36,NNE,26,4.4,8.1,75,0.00,-SN,,0.00,WeatherDisplay:10.37,2013-02-08 14:27:00,
2013-02-08 09:32:00,17.8,10.9,30.35,ENE,70,3.0,8.1,74,0.00,-SN,,0.00,WeatherDisplay:10.37,2013-02-08 14:32:00,
2013-02-08 09:37:00,17.8,10.9,30.35,NNE,15,5.5,8.1,74,0.00,-SN,,0.00,WeatherDisplay:10.37,2013-02-08 14:37:00,
2013-02-08 09:42:00,17.8,10.9,30.35,NE,36,1.7,6.9,74,0.00,-SN,,0.00,WeatherDisplay:10.37,2013-02-08 14:42:00,
2013-02-08 09:47:00,17.8,10.9,30.35,NE,48,1.9,3.5,74,0.00,-SN,,0.00,WeatherDisplay:10.37,2013-02-08 14:47:00,
2013-02-08 09:52:00,18.0,11.1,30.35,North,1,2.9,5.8,74,0.00,-SN,,0.00,WeatherDisplay:10.37,2013-02-08 14:52:00,
2013-02-08 09:57:00,17.8,10.9,30.35,North,354,2.4,5.0,74,0.00,-SN,,0.00,WeatherDisplay:10.37,2013-02-08 14:57:00,
2013-02-08 10:02:00,18.0,11.1,30.35,NE,53,3.2,4.6,74,0.00,OVC,,0.00,WeatherDisplay:10.37,2013-02-08 15:02:00,
2013-02-08 10:07:00,18.0,11.1,30.35,North,1,2.7,4.6,74,0.00,OVC,,0.00,WeatherDisplay:10.37,2013-02-08 15:07:00,
2013-02-08 10:12:00,18.0,11.1,30.34,NE,46,2.4,5.8,74,0.00,OVC,,0.00,WeatherDisplay:10.37,2013-02-08 15:12:00,
2013-02-08 10:17:00,18.1,11.5,30.34,NW,317,1.4,3.5,75,0.00,OVC,,0.00,WeatherDisplay:10.37,2013-02-08 15:17:00,
2013-02-08 10:22:00,18.1,11.2,30.34,NNE,17,1.0,2.3,74,0.00,OVC,,0.00,WeatherDisplay:10.37,2013-02-08 15:22:00,
2013-02-08 10:27:00,18.3,11.4,30.34,North,358,1.4,3.5,74,0.00,OVC,,0.00,WeatherDisplay:10.37,2013-02-08 15:27:00,
2013-02-08 10:32:00,18.3,11.4,30.35,North,4,1.6,2.3,74,0.00,OVC,,0.00,WeatherDisplay:10.37,2013-02-08 15:32:00,
2013-02-08 10:37:00,18.5,11.6,30.35,North,2,1.0,3.5,74,0.00,OVC,,0.00,WeatherDisplay:10.37,2013-02-08 15:37:00,
2013-02-08 10:42:00,18.5,11.6,30.35,North,2,1.0,2.3,74,0.00,OVC,,0.00,WeatherDisplay:10.37,2013-02-08 15:42:00,
2013-02-08 10:47:00,18.6,11.7,30.34,East,87,3.1,6.9,74,0.00,OVC,,0.00,WeatherDisplay:10.37,2013-02-08 15:47:00,
2013-02-08 10:52:00,18.6,11.7,30.34,ENE,67,4.0,5.8,74,0.00,OVC,,0.00,WeatherDisplay:10.37,2013-02-08 15:52:00,
2013-02-08 10:57:00,18.8,11.9,30.34,ENE,62,2.0,3.5,74,0.00,OVC,,0.00,WeatherDisplay:10.37,2013-02-08 15:57:00,
2013-02-08 11:02:00,18.9,12.0,30.33,North,2,1.8,3.5,74,0.00,-SN,,0.00,WeatherDisplay:10.37,2013-02-08 16:02:00,
2013-02-08 11:07:00,18.9,12.0,30.33,North,350,3.1,7.0,74,0.00,-SN,,0.00,WeatherDisplay:10.37,2013-02-08 16:07:00,
2013-02-08 11:12:00,18.9,12.0,30.32,North,0,2.3,3.5,74,0.00,-SN,,0.00,WeatherDisplay:10.37,2013-02-08 16:12:00,
2013-02-08 11:17:00,18.9,12.0,30.32,NNE,21,1.6,3.5,74,0.00,-SN,,0.00,WeatherDisplay:10.37,2013-02-08 16:17:00,
2013-02-08 11:22:00,18.8,11.6,30.31,NNW,340,2.5,4.6,73,0.00,-SN,,0.00,WeatherDisplay:10.37,2013-02-08 16:22:00,
2013-02-08 11:27:00,18.8,11.9,30.31,NNE,15,1.1,3.5,74,0.00,-SN,,0.00,WeatherDisplay:10.37,2013-02-08 16:27:00,
2013-02-08 11:32:00,18.8,11.6,30.31,North,4,4.6,8.1,73,0.00,-SN,,0.00,WeatherDisplay:10.37,2013-02-08 16:32:00,
2013-02-08 11:37:00,18.6,11.4,30.31,North,8,2.7,6.9,73,0.00,-SN,,0.00,WeatherDisplay:10.37,2013-02-08 16:37:00,
2013-02-08 11:42:00,18.5,11.3,30.30,NE,52,7.8,12.7,73,0.00,-SN,,0.00,WeatherDisplay:10.37,2013-02-08 16:42:00,
2013-02-08 11:47:00,18.5,11.6,30.30,NE,42,3.6,5.8,74,0.00,-SN,,0.00,WeatherDisplay:10.37,2013-02-08 16:47:00,
2013-02-08 11:52:00,18.6,11.7,30.29,NE,41,1.8,3.5,74,0.00,-SN,,0.00,WeatherDisplay:10.37,2013-02-08 16:52:00,
2013-02-08 11:57:00,18.8,12.2,30.29,NW,312,4.2,11.5,75,0.00,-SN,,0.00,WeatherDisplay:10.37,2013-02-08 16:57:00,
2013-02-08 12:02:00,18.9,12.3,30.28,North,0,8.2,11.5,75,0.00,-SN,,0.00,WeatherDisplay:10.37,2013-02-08 17:02:00,
2013-02-08 12:07:00,18.8,12.2,30.28,North,350,3.2,8.1,75,0.00,-SN,,0.00,WeatherDisplay:10.37,2013-02-08 17:07:00,
2013-02-08 12:12:00,18.8,12.2,30.27,North,0,4.4,10.4,75,0.00,-SN,,0.00,WeatherDisplay:10.37,2013-02-08 17:12:00,
2013-02-08 12:17:00,18.9,12.3,30.27,North,2,3.3,6.0,75,0.00,-SN,,0.00,WeatherDisplay:10.37,2013-02-08 17:17:00,
2013-02-08 12:22:00,18.8,12.2,30.26,NNW,348,6.7,8.1,75,0.00,-SN,,0.00,WeatherDisplay:10.37,2013-02-08 17:22:00,
2013-02-08 12:27:00,18.6,12.3,30.26,North,1,2.3,5.8,76,0.00,-SN,,0.00,WeatherDisplay:10.37,2013-02-08 17:27:00,
2013-02-08 12:32:00,18.5,12.2,30.26,NNE,22,3.7,9.2,76,0.00,-SN,,0.00,WeatherDisplay:10.37,2013-02-08 17:32:00,
2013-02-08 12:37:00,18.3,12.3,30.26,NNW,348,3.0,4.6,77,0.00,-SN,,0.00,WeatherDisplay:10.37,2013-02-08 17:37:00,
2013-02-08 12:42:00,18.1,12.1,30.25,NNW,348,5.2,8.1,77,0.00,-SN,,0.00,WeatherDisplay:10.37,2013-02-08 17:42:00,
2013-02-08 12:47:00,18.0,12.3,30.24,NNE,15,3.5,5.8,78,0.00,-SN,,0.00,WeatherDisplay:10.37,2013-02-08 17:47:00,
2013-02-08 12:52:00,18.0,12.3,30.24,NNE,21,6.3,10.4,78,0.00,-SN,,0.00,WeatherDisplay:10.37,2013-02-08 17:52:00,
2013-02-08 12:57:00,18.1,12.4,30.24,NNE,15,4.3,6.9,78,0.00,-SN,,0.00,WeatherDisplay:10.37,2013-02-08 17:57:00,
2013-02-08 13:02:00,18.3,12.6,30.23,NNE,17,1.9,5.8,78,0.00,-SN,,0.00,WeatherDisplay:10.37,2013-02-08 18:02:00,
2013-02-08 13:07:00,18.5,12.8,30.23,NE,38,4.2,5.8,78,0.00,-SN,,0.00,WeatherDisplay:10.37,2013-02-08 18:07:00,
2013-02-08 13:12:00,18.5,12.5,30.23,North,1,3.0,5.8,77,0.00,-SN,,0.00,WeatherDisplay:10.37,2013-02-08 18:12:00,
2013-02-08 13:17:00,18.6,12.6,30.23,North,355,5.9,10.4,77,0.00,-SN,,0.00,WeatherDisplay:10.37,2013-02-08 18:17:00,
2013-02-08 13:22:00,18.8,12.8,30.23,NNW,347,4.1,6.9,77,0.00,-SN,,0.00,WeatherDisplay:10.37,2013-02-08 18:22:00,
2013-02-08 13:27:00,18.8,12.8,30.23,NW,323,3.5,7.0,77,0.00,-SN,,0.00,WeatherDisplay:10.37,2013-02-08 18:27:00,
2013-02-08 13:32:00,18.9,12.9,30.22,North,4,3.0,7.0,77,0.00,-SN,,0.00,WeatherDisplay:10.37,2013-02-08 18:32:00,
2013-02-08 13:38:00,19.2,12.9,30.22,NNW,343,4.0,8.0,76,0.00,-SN,,0.00,WeatherDisplay:10.37,2013-02-08 18:38:00,
2013-02-08 13:44:00,19.6,13.3,30.21,NNE,28,2.4,4.0,76,0.00,-SN,,0.00,WeatherDisplay:10.37,2013-02-08 18:44:00,
2013-02-08 13:49:00,19.7,13.1,30.20,NE,46,2.4,5.8,75,0.00,-SN,,0.00,WeatherDisplay:10.37,2013-02-08 18:49:00,
2013-02-08 13:54:00,19.9,13.3,30.20,NE,39,3.4,6.9,75,0.00,-SN,,0.00,WeatherDisplay:10.37,2013-02-08 18:54:00,
2013-02-08 13:59:00,20.0,13.0,30.20,NE,53,2.8,6.9,74,0.00,-SN,,0.00,WeatherDisplay:10.37,2013-02-08 18:59:00,
2013-02-08 14:04:00,20.2,13.2,30.19,NNE,18,6.6,17.3,74,0.00,-SN,,0.00,WeatherDisplay:10.37,2013-02-08 19:04:00,
2013-02-08 14:09:00,20.2,12.9,30.19,NNE,28,9.6,13.0,73,0.00,-SN,,0.00,WeatherDisplay:10.37,2013-02-08 19:09:00,
2013-02-08 14:14:00,20.0,12.7,30.18,NNE,21,3.1,4.6,73,0.00,-SN,,0.00,WeatherDisplay:10.37,2013-02-08 19:14:00,
2013-02-08 14:19:00,20.2,13.2,30.17,NE,45,5.1,13.0,74,0.00,-SN,,0.00,WeatherDisplay:10.37,2013-02-08 19:19:00,
2013-02-08 14:24:00,20.0,13.0,30.17,North,2,0.9,2.3,74,0.00,-SN,,0.00,WeatherDisplay:10.37,2013-02-08 19:24:00,
2013-02-08 14:29:00,20.0,13.3,30.17,NNE,18,4.2,6.9,75,0.00,-SN,,0.00,WeatherDisplay:10.37,2013-02-08 19:29:00,
2013-02-08 14:34:00,20.0,13.3,30.17,NNE,21,3.2,10.4,75,0.00,-SN,,0.00,WeatherDisplay:10.37,2013-02-08 19:34:00,
2013-02-08 14:39:00,19.9,13.9,30.17,North,8,4.5,8.1,77,0.00,-SN,,0.00,WeatherDisplay:10.37,2013-02-08 19:39:00,
2013-02-08 14:44:00,19.7,13.7,30.17,NE,46,5.9,11.5,77,0.00,-SN,,0.00,WeatherDisplay:10.37,2013-02-08 19:44:00,
2013-02-08 14:49:00,19.6,13.6,30.17,NNE,29,2.6,5.8,77,0.00,-SN,,0.00,WeatherDisplay:10.37,2013-02-08 19:49:00,
2013-02-08 14:54:00,19.6,13.9,30.17,NE,41,5.8,5.8,78,0.00,-SN,,0.00,WeatherDisplay:10.37,2013-02-08 19:54:00,
2013-02-08 14:59:00,19.4,13.7,30.17,ENE,60,7.1,10.4,78,0.00,-SN,,0.00,WeatherDisplay:10.37,2013-02-08 19:59:00,
2013-02-08 15:04:00,19.2,13.8,30.16,NE,38,7.2,10.4,79,0.00,OVC,,0.00,WeatherDisplay:10.37,2013-02-08 20:04:00,
2013-02-08 15:09:00,19.2,13.8,30.16,NNE,21,7.7,12.7,79,0.00,OVC,,0.00,WeatherDisplay:10.37,2013-02-08 20:09:00,
2013-02-08 15:14:00,19.1,13.7,30.16,NE,50,3.9,8.1,79,0.00,OVC,,0.00,WeatherDisplay:10.37,2013-02-08 20:14:00,
2013-02-08 15:19:00,18.9,13.7,30.15,NNE,33,3.6,5.8,80,0.00,OVC,,0.00,WeatherDisplay:10.37,2013-02-08 20:19:00,
2013-02-08 15:24:00,18.8,13.7,30.15,North,358,5.6,11.5,80,0.00,OVC,,0.00,WeatherDisplay:10.37,2013-02-08 20:24:00,
2013-02-08 15:29:00,18.8,13.7,30.15,NNW,333,2.3,6.0,80,0.00,OVC,,0.00,WeatherDisplay:10.37,2013-02-08 20:29:00,
2013-02-08 15:34:00,18.6,13.5,30.14,NE,45,6.9,8.1,80,0.00,OVC,,0.00,WeatherDisplay:10.37,2013-02-08 20:34:00,
2013-02-08 15:39:00,18.6,13.5,30.14,NNE,28,1.5,4.0,80,0.00,OVC,,0.00,WeatherDisplay:10.37,2013-02-08 20:39:00,
2013-02-08 15:44:00,18.6,13.5,30.14,North,358,3.6,4.6,80,0.00,OVC,,0.00,WeatherDisplay:10.37,2013-02-08 20:44:00,
2013-02-08 15:49:00,18.5,13.6,30.13,North,1,4.4,7.0,81,0.00,,,0.00,WeatherDisplay:10.37,2013-02-08 20:49:00,
2013-02-08 15:54:00,18.5,13.6,30.13,NNE,25,2.7,5.8,81,0.00,,,0.00,WeatherDisplay:10.37,2013-02-08 20:54:00,
2013-02-08 15:59:00,18.3,13.4,30.13,North,9,6.0,11.5,81,0.00,,,0.00,WeatherDisplay:10.37,2013-02-08 20:59:00,
2013-02-08 16:04:00,18.3,13.4,30.12,NE,42,4.5,7.0,81,0.00,,,0.00,WeatherDisplay:10.37,2013-02-08 21:04:00,
2013-02-08 16:09:00,18.3,13.7,30.12,NE,36,4.9,8.1,82,0.00,,,0.00,WeatherDisplay:10.37,2013-02-08 21:09:00,
2013-02-08 16:14:00,18.3,13.7,30.11,NNE,18,5.2,8.1,82,0.00,,,0.00,WeatherDisplay:10.37,2013-02-08 21:14:00,
2013-02-08 16:19:00,18.3,13.7,30.11,NE,55,7.0,11.5,82,0.00,,,0.00,WeatherDisplay:10.37,2013-02-08 21:19:00,
2013-02-08 16:24:00,18.3,13.7,30.11,NNE,24,8.1,12.0,82,0.00,,,0.00,WeatherDisplay:10.37,2013-02-08 21:24:00,
2013-02-08 16:29:00,18.1,13.5,30.11,ENE,62,4.1,12.7,82,0.00,,,0.00,WeatherDisplay:10.37,2013-02-08 21:29:00,
2013-02-08 16:34:00,18.1,13.5,30.10,NW,313,4.0,11.5,82,0.00,,,0.00,WeatherDisplay:10.37,2013-02-08 21:34:00,
2013-02-08 16:39:00,18.1,13.5,30.10,NNE,19,8.5,14.0,82,0.00,,,0.00,WeatherDisplay:10.37,2013-02-08 21:39:00,
2013-02-08 16:44:00,18.0,13.4,30.09,North,0,3.3,6.9,82,0.00,,,0.00,WeatherDisplay:10.37,2013-02-08 21:44:00,
2013-02-08 16:49:00,17.8,13.2,30.09,NNW,344,8.2,12.7,82,0.00,,,0.00,WeatherDisplay:10.37,2013-02-08 21:49:00,
2013-02-08 16:54:00,17.8,13.2,30.08,North,357,6.9,16.1,82,0.00,,,0.00,WeatherDisplay:10.37,2013-02-08 21:54:00,
2013-02-08 16:59:00,17.7,13.4,30.08,NNE,25,5.6,10.4,83,0.00,,,0.00,WeatherDisplay:10.37,2013-02-08 21:59:00,
2013-02-08 17:04:00,17.7,13.4,30.08,NNW,329,6.3,8.1,83,0.00,,,0.00,WeatherDisplay:10.37,2013-02-08 22:04:00,
2013-02-08 17:09:00,17.7,13.4,30.08,NNW,338,3.1,11.5,83,0.00,,,0.00,WeatherDisplay:10.37,2013-02-08 22:09:00,
2013-02-08 17:14:00,17.5,13.2,30.07,NNW,333,3.7,9.2,83,0.00,,,0.00,WeatherDisplay:10.37,2013-02-08 22:14:00,
2013-02-08 17:19:00,17.5,13.2,30.06,North,2,4.0,8.0,83,0.00,-SN,,0.00,WeatherDisplay:10.37,2013-02-08 22:19:00,
2013-02-08 17:24:00,17.4,13.1,30.06,NNE,25,4.1,11.5,83,0.00,-SN,,0.00,WeatherDisplay:10.37,2013-02-08 22:24:00,
2013-02-08 17:29:00,17.2,12.9,30.06,NE,42,7.0,11.5,83,0.00,-SN,,0.00,WeatherDisplay:10.37,2013-02-08 22:29:00,
2013-02-08 17:34:00,17.0,12.7,30.05,North,354,8.1,11.5,83,0.00,-SN,,0.00,WeatherDisplay:10.37,2013-02-08 22:34:00,
2013-02-08 17:39:00,17.0,12.7,30.05,NE,42,4.4,8.1,83,0.00,-SN,,0.00,WeatherDisplay:10.37,2013-02-08 22:39:00,
2013-02-08 17:44:00,17.0,13.0,30.05,North,2,6.7,10.4,84,0.00,-SN,,0.00,WeatherDisplay:10.37,2013-02-08 22:44:00,
2013-02-08 17:49:00,17.2,13.2,30.05,North,358,3.4,17.3,84,0.00,-SN,,0.00,WeatherDisplay:10.37,2013-02-08 22:49:00,
2013-02-08 17:54:00,17.2,13.2,30.05,NE,49,3.3,5.8,84,0.00,-SN,,0.00,WeatherDisplay:10.37,2013-02-08 22:54:00,
2013-02-08 17:59:00,17.2,13.2,30.05,NNE,31,3.1,6.9,84,0.00,-SN,,0.00,WeatherDisplay:10.37,2013-02-08 22:59:00,
2013-02-08 18:04:00,17.2,13.2,30.05,North,2,7.3,11.5,84,0.00,-SN,,0.00,WeatherDisplay:10.37,2013-02-08 23:04:00,
2013-02-08 18:09:00,17.2,13.2,30.05,NW,306,4.9,8.1,84,0.00,-SN,,0.00,WeatherDisplay:10.37,2013-02-08 23:09:00,
2013-02-08 18:14:00,17.2,13.2,30.04,NE,46,4.5,6.9,84,0.00,-SN,,0.00,WeatherDisplay:10.37,2013-02-08 23:14:00,
2013-02-08 18:19:00,17.2,13.2,30.04,NNE,18,4.6,10.4,84,0.00,-SN,,0.00,WeatherDisplay:10.37,2013-02-08 23:19:00,
2013-02-08 18:24:00,17.2,13.5,30.03,North,0,2.4,13.8,85,0.00,-SN,,0.00,WeatherDisplay:10.37,2013-02-08 23:24:00,
2013-02-08 18:29:00,17.2,13.5,30.03,North,353,9.7,13.0,85,0.00,-SN,,0.00,WeatherDisplay:10.37,2013-02-08 23:29:00,
2013-02-08 18:34:00,17.4,13.7,30.03,NNE,33,7.2,11.5,85,0.00,-SN,,0.00,WeatherDisplay:10.37,2013-02-08 23:34:00,
2013-02-08 18:39:00,17.4,13.7,30.03,North,8,5.7,13.0,85,0.00,-SN,,0.00,WeatherDisplay:10.37,2013-02-08 23:39:00,
2013-02-08 18:44:00,17.4,13.7,30.02,NNW,348,8.5,12.7,85,0.00,-SN,,0.00,WeatherDisplay:10.37,2013-02-08 23:44:00,
2013-02-08 18:49:00,17.4,13.7,30.02,NNE,17,10.9,16.1,85,0.00,-SN,,0.00,WeatherDisplay:10.37,2013-02-08 23:49:00,
2013-02-08 18:54:00,17.4,13.7,30.02,NNW,327,4.4,9.2,85,0.00,-SN,,0.00,WeatherDisplay:10.37,2013-02-08 23:54:00,
2013-02-08 18:59:00,17.2,13.5,30.02,NNW,327,8.7,16.1,85,0.00,-SN,,0.00,WeatherDisplay:10.37,2013-02-08 23:59:00,
2013-02-08 19:04:00,17.2,13.5,30.01,NE,41,7.3,11.5,85,0.00,-SN,,0.00,WeatherDisplay:10.37,2013-02-09 00:04:00,
2013-02-08 19:09:00,17.2,13.5,30.01,NNE,25,5.8,9.2,85,0.00,-SN,,0.00,WeatherDisplay:10.37,2013-02-09 00:09:00,
2013-02-08 19:14:00,17.2,13.5,30.01,North,350,5.6,11.5,85,0.00,-SN,,0.00,WeatherDisplay:10.37,2013-02-09 00:14:00,
2013-02-08 19:19:00,17.2,13.5,30.00,NW,326,7.4,14.0,85,0.00,,,0.00,WeatherDisplay:10.37,2013-02-09 00:19:00,
2013-02-08 19:24:00,17.0,13.3,30.00,NNE,31,10.9,17.3,85,0.00,,,0.00,WeatherDisplay:10.37,2013-02-09 00:24:00,
2013-02-08 19:29:00,17.0,13.3,30.00,North,1,7.9,12.7,85,0.00,,,0.00,WeatherDisplay:10.37,2013-02-09 00:29:00,
2013-02-08 19:34:00,17.0,13.3,29.99,NNE,17,12.4,17.3,85,0.00,,,0.00,WeatherDisplay:10.37,2013-02-09 00:34:00,
2013-02-08 19:39:00,16.9,13.2,29.99,North,11,8.4,11.5,85,0.00,,,0.00,WeatherDisplay:10.37,2013-02-09 00:39:00,
2013-02-08 19:44:00,16.9,13.2,29.97,North,0,9.6,12.7,85,0.00,,,0.00,WeatherDisplay:10.37,2013-02-09 00:44:00,
2013-02-08 19:49:00,16.9,13.2,29.97,NNE,28,5.6,10.4,85,0.00,,,0.00,WeatherDisplay:10.37,2013-02-09 00:49:00,
2013-02-08 19:54:00,16.9,13.2,29.97,NNE,12,6.2,12.7,85,0.00,,,0.00,WeatherDisplay:10.37,2013-02-09 00:54:00,
2013-02-08 19:59:00,16.7,13.0,29.97,NE,53,3.8,9.2,85,0.00,,,0.00,WeatherDisplay:10.37,2013-02-09 00:59:00,
2013-02-08 20:04:00,16.7,13.0,29.96,North,351,6.4,11.5,85,0.00,,,0.00,WeatherDisplay:10.37,2013-02-09 01:04:00,
2013-02-08 20:09:00,16.7,13.0,29.96,North,5,10.8,18.4,85,0.00,,,0.00,WeatherDisplay:10.37,2013-02-09 01:09:00,
2013-02-08 20:14:00,16.6,12.9,29.96,NE,35,6.4,11.5,85,0.00,,,0.00,WeatherDisplay:10.37,2013-02-09 01:14:00,
2013-02-08 20:19:00,16.6,12.9,29.96,NE,50,10.8,18.4,85,0.00,,,0.00,WeatherDisplay:10.37,2013-02-09 01:19:00,
2013-02-08 20:24:00,16.6,12.9,29.95,NE,52,7.1,12.7,85,0.00,,,0.00,WeatherDisplay:10.37,2013-02-09 01:24:00,
2013-02-08 20:29:00,16.6,12.9,29.95,NNW,333,6.8,12.7,85,0.00,,,0.00,WeatherDisplay:10.37,2013-02-09 01:29:00,
2013-02-08 20:34:00,16.4,12.7,29.94,NNE,31,10.6,19.6,85,0.00,,,0.00,WeatherDisplay:10.37,2013-02-09 01:34:00,
2013-02-08 20:39:00,16.4,12.7,29.94,North,4,13.4,19.6,85,0.00,,,0.00,WeatherDisplay:10.37,2013-02-09 01:39:00,
2013-02-08 20:44:00,16.4,12.7,29.94,NNW,341,10.4,20.7,85,0.00,,,0.00,WeatherDisplay:10.37,2013-02-09 01:44:00,
2013-02-08 20:49:00,16.4,12.7,29.94,North,355,7.6,16.1,85,0.00,,,0.00,WeatherDisplay:10.37,2013-02-09 01:49:00,
2013-02-08 20:54:00,16.2,12.5,29.93,NNW,343,6.5,18.0,85,0.00,,,0.00,WeatherDisplay:10.37,2013-02-09 01:54:00,
2013-02-08 20:59:00,16.2,12.5,29.92,NE,46,5.0,11.5,85,0.00,,,0.00,WeatherDisplay:10.37,2013-02-09 01:59:00,
2013-02-08 21:04:00,16.2,12.5,29.92,NNE,18,12.7,19.6,85,0.00,,,0.00,WeatherDisplay:10.37,2013-02-09 02:04:00,
2013-02-08 21:09:00,16.1,12.4,29.92,North,2,10.3,16.0,85,0.00,,,0.00,WeatherDisplay:10.37,2013-02-09 02:09:00,
2013-02-08 21:14:00,16.1,12.4,29.91,NNE,22,12.1,18.4,85,0.00,,,0.00,WeatherDisplay:10.37,2013-02-09 02:14:00,
2013-02-08 21:19:00,16.1,12.4,29.91,North,355,13.4,19.6,85,0.00,,,0.00,WeatherDisplay:10.37,2013-02-09 02:19:00,
2013-02-08 21:24:00,15.9,12.2,29.90,ENE,65,8.1,17.3,85,0.00,,,0.00,WeatherDisplay:10.37,2013-02-09 02:24:00,
2013-02-08 21:29:00,15.9,12.2,29.90,North,11,4.8,11.5,85,0.00,,,0.00,WeatherDisplay:10.37,2013-02-09 02:29:00,
2013-02-08 21:34:00,15.9,12.2,29.91,North,358,9.6,18.0,85,0.00,,,0.00,WeatherDisplay:10.37,2013-02-09 02:34:00,
2013-02-08 21:39:00,15.9,12.2,29.91,NE,38,8.4,13.8,85,0.00,,,0.00,WeatherDisplay:10.37,2013-02-09 02:39:00,
2013-02-08 21:44:00,15.8,12.1,29.89,NNW,344,10.7,18.4,85,0.00,,,0.00,WeatherDisplay:10.37,2013-02-09 02:44:00,
2013-02-08 21:49:00,15.8,12.1,29.89,North,2,7.3,13.8,85,0.00,,,0.00,WeatherDisplay:10.37,2013-02-09 02:49:00,
2013-02-08 21:54:00,15.8,12.1,29.88,North,354,12.6,17.3,85,0.00,,,0.00,WeatherDisplay:10.37,2013-02-09 02:54:00,
2013-02-08 21:59:00,15.8,12.1,29.88,North,4,7.6,12.7,85,0.00,,,0.00,WeatherDisplay:10.37,2013-02-09 02:59:00,
2013-02-08 22:04:00,15.8,12.4,29.88,NNW,336,11.5,18.4,86,0.00,,,0.00,WeatherDisplay:10.37,2013-02-09 03:04:00,
2013-02-08 22:09:00,15.8,12.1,29.88,NNW,336,5.3,9.2,85,0.00,,,0.00,WeatherDisplay:10.37,2013-02-09 03:09:00,
2013-02-08 22:14:00,15.8,12.4,29.87,North,355,6.1,17.3,86,0.00,,,0.00,WeatherDisplay:10.37,2013-02-09 03:14:00,
2013-02-08 22:19:00,15.8,12.4,29.87,NE,41,8.6,21.9,86,0.00,,,0.00,WeatherDisplay:10.37,2013-02-09 03:19:00,
2013-02-08 22:24:00,15.8,12.4,29.86,NE,46,10.2,13.8,86,0.00,,,0.00,WeatherDisplay:10.37,2013-02-09 03:24:00,
2013-02-08 22:29:00,15.6,11.9,29.86,North,355,8.0,10.4,85,0.00,,,0.00,WeatherDisplay:10.37,2013-02-09 03:29:00,
2013-02-08 22:34:00,15.6,11.9,29.85,North,357,5.5,10.4,85,0.00,,,0.00,WeatherDisplay:10.37,2013-02-09 03:34:00,
2013-02-08 22:39:00,15.4,11.7,29.85,North,351,6.1,12.7,85,0.00,,,0.00,WeatherDisplay:10.37,2013-02-09 03:39:00,
2013-02-08 22:44:00,15.4,11.7,29.84,NNW,331,8.6,17.3,85,0.00,,,0.00,WeatherDisplay:10.37,2013-02-09 03:44:00,
2013-02-08 22:49:00,15.3,11.6,29.84,North,351,10.4,18.4,85,0.00,,,0.00,WeatherDisplay:10.37,2013-02-09 03:49:00,
2013-02-08 22:54:00,15.3,11.6,29.83,NNE,29,10.1,13.8,85,0.00,,,0.00,WeatherDisplay:10.37,2013-02-09 03:54:00,
2013-02-08 22:59:00,15.3,11.6,29.82,North,1,8.5,19.6,85,0.00,,,0.00,WeatherDisplay:10.37,2013-02-09 03:59:00,
2013-02-08 23:04:00,15.3,11.6,29.82,NNE,26,6.3,11.0,85,0.00,,,0.00,WeatherDisplay:10.37,2013-02-09 04:04:00,
2013-02-08 23:09:00,15.3,11.9,29.82,NNE,12,6.0,11.5,86,0.00,,,0.00,WeatherDisplay:10.37,2013-02-09 04:09:00,
2013-02-08 23:14:00,15.3,11.9,29.80,NNW,344,10.2,16.1,86,0.00,,,0.00,WeatherDisplay:10.37,2013-02-09 04:14:00,
2013-02-08 23:19:00,15.3,11.9,29.80,NNW,330,10.9,19.6,86,0.00, +SN,,0.00,WeatherDisplay:10.37,2013-02-09 04:19:00,
2013-02-08 23:24:00,15.3,11.9,29.81,NNE,12,11.2,19.0,86,0.00, +SN,,0.00,WeatherDisplay:10.37,2013-02-09 04:24:00,
2013-02-08 23:29:00,15.3,11.9,29.81,North,0,7.8,11.5,86,0.00, +SN,,0.00,WeatherDisplay:10.37,2013-02-09 04:29:00,
2013-02-08 23:34:00,15.3,11.6,29.80,North,11,13.3,19.6,85,0.00, +SN,,0.00,WeatherDisplay:10.37,2013-02-09 04:34:00,
2013-02-08 23:39:00,15.1,11.4,29.80,NE,36,11.5,11.5,85,0.00, +SN,,0.00,WeatherDisplay:10.37,2013-02-09 04:39:00,
2013-02-08 23:44:00,14.9,11.2,29.80,North,357,7.4,17.3,85,0.00, +SN,,0.00,WeatherDisplay:10.37,2013-02-09 04:44:00,
2013-02-08 23:49:00,14.8,11.1,29.80,WNW,296,13.4,19.6,85,0.00,,,0.00,WeatherDisplay:10.37,2013-02-09 04:49:00,
2013-02-08 23:54:00,14.6,10.9,29.79,North,4,13.8,18.4,85,0.00,,,0.00,WeatherDisplay:10.37,2013-02-09 04:54:00,
2013-02-08 23:59:00,14.6,10.9,29.78,NNW,338,8.9,21.9,85,0.00,,,0.00,WeatherDisplay:10.37,2013-02-09 04:59:00,